Theta_e
285 286 286 286 284 284 283 284 283 283 284 283 280 281 283 282 278 275 281 283 281 283 286 287 284 282 281 282 282 282 283 284 284 284 284 285 284 284 285 285 286 286 286 286 286 286 286 286 286 286 286 287 287 288 288 288 288 287 288 287 287 287 287 286 287 287 287 287 288 288 288 288 288 288 288 289 289 289 289 289 289 288 288 288 288 288 287
281 282 283 284 282 282 282 282 282 283 282 282 283 282 284 283 281 283 283 283 282 285 286 284 282 282 282 282 283 284 283 283 284 284 284 284 284 284 284 285 285 286 286 287 287 287 286 286 286 286 286 286 287 287 287 287 287 287 287 286 286 287 286 286 287 287 287 286 286 287 287 286 286 287 287 287 288 288 288 288 289 289 288 288 287 287 287
277 280 282 282 281 280 277 280 281 281 281 281 282 282 282 282 281 282 282 281 280 284 280 283 284 283 283 282 281 282 282 283 283 283 284 285 285 285 285 285 286 286 286 286 287 287 286 286 286 286 286 286 287 286 287 287 287 287 287 285 286 286 286 286 287 287 286 286 286 286 286 286 286 286 286 286 287 287 287 288 288 288 288 287 287 286 286
274 279 279 279 279 278 276 276 277 278 278 277 279 278 281 280 278 280 280 277 278 282 282 281 283 281 281 280 281 281 282 282 282 282 283 284 284 284 284 284 285 286 286 286 286 286 287 287 286 286 286 286 286 286 286 286 286 287 286 285 285 285 285 286 286 286 286 285 285 285 285 285 285 285 285 285 285 285 286 286 287 287 287 287 287 287 287
272 277 276 275 274 273 271 272 276 278 278 279 280 281 282 281 281 278 275 277 281 280 283 279 280 281 280 281 280 281 282 283 283 282 283 284 284 284 284 284 285 286 286 287 287 287 287 287 287 286 286 286 285 286 286 286 286 286 285 285 285 284 285 285 285 285 286 285 285 284 284 285 285 285 285 285 285 285 285 286 286 286 287 287 287 287 287
271 275 271 274 270 264 267 279 282 280 278 279 277 277 279 281 283 280 282 280 278 280 281 279 278 278 279 280 281 283 282 282 283 283 283 284 284 285 285 285 285 286 287 287 288 288 288 288 287 287 287 286 286 286 286 286 286 285 285 284 284 284 284 284 284 285 285 284 284 284 284 284 284 284 284 284 285 285 285 285 285 285 286 286 286 286 286
270 270 269 269 263 265 276 281 283 281 281 280 279 280 281 279 279 279 279 279 279 280 281 280 280 281 282 283 282 283 284 284 284 283 283 284 284 285 285 285 285 286 287 287 288 288 288 288 287 287 286 286 286 285 285 285 285 285 285 284 284 283 283 284 284 284 284 284 283 283 283 284 284 284 284 284 284 284 284 284 284 284 285 285 285 285 285
271 270 269 261 264 274 275 278 281 279 280 280 280 278 281 279 281 282 281 281 280 281 281 282 282 282 283 284 284 284 285 285 285 284 284 285 285 285 284 284 285 285 286 286 287 287 288 288 287 287 285 286 285 284 285 284 284 284 284 283 283 283 283 283 283 283 283 283 283 282 282 283 283 283 283 283 283 284 284 284 284 285 285 285 285 285 285
266 270 269 268 274 273 275 276 279 278 278 279 277 272 277 279 281 280 280 279 281 281 280 281 281 283 282 281 281 285 285 286 286 286 285 286 286 286 286 286 286 287 288 288 288 288 288 287 286 285 285 285 284 283 283 283 283 283 283 283 283 282 282 282 282 283 283 282 282 282 282 282 282 282 282 283 283 284 283 283 283 283 283 284 284 284 284
273 267 267 268 267 264 271 279 279 282 281 281 280 278 274 280 279 280 279 277 278 279 279 280 281 283 279 276 278 283 284 285 285 285 286 287 287 287 287 287 288 288 288 288 288 287 286 285 284 284 284 283 282 282 281 282 282 282 282 282 282 282 282 282 282 282 282 282 281 281 281 280 280 281 282 282 282 283 282 282 282 282 283 283 284 284 283
273 268 266 265 264 267 276 275 278 278 278 279 279 276 270 278 276 277 277 278 279 280 279 279 280 278 274 274 278 283 284 284 284 284 284 285 287 287 287 287 286 285 286 285 284 283 283 282 282 283 282 282 281 280 280 280 280 280 280 281 281 281 281 282 282 281 282 281 281 280 279 279 280 280 280 280 281 282 282 282 282 282 282 282 282 283 283
270 269 267 265 271 268 275 277 280 280 280 282 277 266 267 276 276 278 278 278 278 279 280 280 278 276 273 275 279 283 284 284 284 283 283 283 284 285 285 285 285 284 283 282 281 280 280 280 281 281 281 280 279 278 279 279 279 279 280 280 281 281 281 281 281 281 281 280 280 279 278 279 279 279 279 279 280 281 281 281 281 281 281 281 281 281 282
270 271 268 270 270 276 278 278 281 279 280 278 268 264 273 277 277 278 279 279 279 280 279 279 277 279 281 281 283 284 284 283 283 284 285 284 284 283 283 283 282 280 280 279 279 279 279 280 280 279 279 278 277 277 278 277 277 278 279 280 279 279 280 279 279 279 279 279 278 278 278 278 278 278 278 278 279 280 279 279 279 279 279 280 280 280 281
268 269 267 267 271 276 279 281 280 280 276 267 267 276 279 278 278 280 279 279 280 280 279 280 280 281 282 283 284 283 283 282 282 283 283 282 282 282 281 281 280 279 278 278 278 278 279 279 278 278 277 276 276 276 275 275 276 277 278 277 277 277 277 277 277 277 277 277 277 277 277 277 276 276 277 278 278 278 278 277 276 276 277 278 279 279 280
270 269 266 265 261 273 278 279 277 280 272 274 279 279 280 280 279 280 280 280 280 281 279 281 281 281 281 282 282 281 281 281 281 281 280 279 278 278 278 278 278 277 276 276 276 276 277 277 277 276 275 274 273 273 273 274 275 275 275 275 275 275 275 275 275 275 275 275 275 275 275 275 275 275 276 276 276 275 275 274 275 275 276 277 278 278 279
266 266 264 264 272 277 277 277 273 278 280 282 281 280 278 281 281 280 280 281 281 281 280 280 280 280 280 280 280 280 280 280 280 278 278 277 277 277 277 277 277 276 274 275 274 274 274 274 274 274 273 272 272 271 271 273 273 273 273 273 273 272 272 272 272 272 273 273 274 274 274 274 274 273 273 273 273 273 273 273 273 274 275 277 277 277 278
270 268 272 275 277 279 279 279 280 281 282 283 282 281 280 279 280 282 280 280 281 280 279 279 279 278 279 279 280 278 277 277 276 276 276 276 276 275 275 275 275 274 272 271 271 271 272 272 272 272 271 270 269 269 270 272 271 270 269 268 268 268 268 268 269 270 270 271 271 272 272 272 271 272 271 271 271 272 272 272 272 272 273 275 276 277 277
278 279 279 280 279 279 280 281 281 281 281 282 282 281 280 281 282 281 280 280 279 278 278 277 278 278 278 277 276 276 276 275 275 275 275 275 275 274 274 273 272 271 270 269 269 268 269 270 269 270 269 269 266 267 268 267 267 266 265 264 264 264 264 265 265 266 266 267 268 269 269 270 270 270 270 270 270 270 270 270 271 271 272 273 275 276 276
272 268 278 277 277 280 280 280 282 282 282 282 282 281 281 281 280 278 278 277 277 276 275 275 275 275 275 274 274 274 274 274 274 273 273 273 273 272 271 271 270 268 268 267 267 266 266 267 267 266 266 265 265 265 264 264 264 263 262 261 261 261 261 262 263 263 263 264 265 266 266 267 268 268 269 269 268 269 269 269 269 270 271 273 274 275 276
271 271 276 277 279 280 280 280 279 279 281 282 282 281 279 278 276 275 275 275 274 274 273 274 273 273 273 272 272 272 272 272 272 272 271 271 270 270 270 269 268 266 266 265 264 263 263 264 264 263 263 262 262 262 262 262 261 261 260 260 259 259 260 260 261 261 261 263 263 263 264 265 265 266 267 268 267 268 268 268 268 269 270 271 273 274 276
274 277 278 278 279 279 279 280 281 281 281 281 280 277 276 275 274 273 272 273 273 273 272 272 272 271 271 271 271 270 270 270 270 270 269 268 268 268 267 266 265 264 263 262 262 261 261 262 261 261 261 261 261 261 261 261 260 259 259 259 259 259 259 259 259 260 260 261 261 262 262 263 264 265 265 265 266 267 268 269 269 269 269 271 273 275 276
270 271 274 277 272 272 277 279 280 281 278 277 276 274 273 273 272 272 271 271 271 270 271 271 270 268 269 269 269 268 268 268 268 268 267 266 266 265 265 264 263 262 261 260 260 259 260 260 260 260 260 260 260 261 260 260 260 259 258 258 258 258 259 259 259 259 260 260 260 260 260 260 261 262 266 268 268 266 266 270 272 274 274 271 272 274 274
271 276 278 279 278 278 278 279 277 275 274 275 275 274 273 272 271 270 269 269 269 269 269 270 268 267 268 268 268 266 266 266 266 266 265 264 263 263 262 261 260 260 259 259 259 258 259 259 259 259 259 259 260 260 260 260 259 259 258 258 258 258 258 258 259 259 259 259 259 260 260 260 260 260 260 262 268 269 270 270 271 272 273 275 276 276 274
278 279 279 280 278 276 278 279 275 273 272 273 273 271 271 270 268 268 267 268 267 267 268 267 267 267 266 266 265 264 265 265 264 263 263 263 262 261 261 260 259 258 258 258 258 258 259 259 259 259 258 259 259 259 259 259 259 259 258 258 257 258 258 258 258 259 259 259 259 259 259 260 259 259 259 259 260 266 268 269 270 271 272 273 274 275 276
276 280 280 280 279 279 277 273 272 270 269 270 271 270 268 268 267 267 266 266 267 266 265 265 266 266 264 264 264 263 262 262 262 261 261 260 260 259 259 258 257 257 257 258 258 258 258 258 258 258 258 258 258 259 259 259 259 258 258 257 257 257 258 258 258 259 258 258 259 259 259 259 259 259 259 259 258 259 262 267 269 270 271 272 273 274 275
280 280 280 274 274 275 273 271 270 268 268 267 267 266 266 265 265 264 264 264 264 265 264 264 264 264 264 262 262 261 260 260 260 259 259 258 258 258 257 257 257 257 257 258 258 258 257 257 257 257 257 258 258 258 259 259 258 257 257 257 257 257 257 258 258 258 258 258 259 259 259 259 259 259 259 259 259 259 260 261 262 266 269 271 272 273 274
280 275 274 273 275 274 272 273 273 267 266 266 266 265 265 264 263 263 263 263 263 263 263 263 262 262 261 260 259 259 258 258 258 258 257 257 256 257 257 257 257 257 257 257 257 257 257 257 257 257 257 257 258 258 258 258 257 257 257 257 257 258 258 258 258 258 259 259 259 259 259 259 259 259 259 260 260 260 259 259 260 261 262 265 269 272 271
272 270 274 274 275 276 271 267 266 266 266 265 265 263 263 262 261 260 260 261 262 262 262 261 260 258 257 258 258 257 257 256 256 256 256 256 257 257 257 257 257 257 257 257 257 257 257 257 257 257 257 258 258 258 258 257 257 257 257 257 257 257 258 258 258 259 259 259 259 259 259 259 259 260 260 260 260 260 261 261 261 261 261 262 263 267 270
269 268 266 267 267 266 266 266 265 265 264 264 263 262 260 259 259 259 260 261 261 260 259 259 259 258 257 257 257 255 255 255 255 255 255 256 256 256 257 257 257 257 257 257 257 258 258 257 257 257 257 258 258 258 258 257 257 257 257 257 257 258 258 258 259 259 259 259 259 259 260 260 260 260 260 260 261 260 260 260 261 262 262 263 264 265 268
266 265 264 264 264 264 264 264 264 264 263 263 261 260 260 259 259 260 260 259 259 257 258 257 256 256 256 255 255 254 253 253 254 254 255 256 256 256 256 257 257 257 257 257 257 258 257 257 257 256 257 258 258 258 258 257 257 257 257 257 257 258 258 258 259 259 259 259 259 260 260 260 260 260 260 260 260 261 261 261 262 262 262 263 264 264 265
263 261 261 262 263 262 263 264 263 262 262 261 259 259 259 259 258 258 258 258 257 257 256 255 254 254 254 254 254 255 255 255 255 255 255 255 255 256 256 257 256 256 256 256 257 257 257 257 257 257 258 259 259 258 258 258 258 258 258 258 258 259 259 260 261 260 260 260 260 260 260 260 260 260 260 260 260 260 261 261 261 261 262 262 263 264 265
261 259 260 261 261 261 261 261 261 261 260 259 258 257 257 256 255 255 255 255 255 254 254 254 254 253 254 254 254 254 254 254 254 254 254 255 256 257 258 258 257 257 257 257 257 257 257 257 257 258 259 259 259 258 258 258 258 258 258 258 258 259 259 260 260 260 260 260 260 259 260 259 259 260 260 260 260 260 261 261 261 262 263 263 264 264 266
261 261 261 260 259 258 259 261 260 259 257 256 257 257 256 256 255 255 254 254 254 254 253 253 253 254 254 254 253 253 253 253 253 254 254 256 257 257 258 258 258 257 257 257 258 258 258 258 258 259 259 259 258 258 258 258 258 258 258 258 258 259 259 260 260 260 260 260 260 260 260 260 260 260 260 260 261 261 261 262 262 262 263 264 265 266 268
265 266 263 259 261 262 262 260 258 256 256 256 257 256 255 255 254 254 253 253 253 252 252 253 253 253 253 253 253 252 252 252 253 255 256 256 256 257 258 258 258 257 257 258 258 259 260 259 259 258 259 258 258 258 258 258 258 258 258 258 258 258 259 259 260 260 260 260 260 260 260 260 260 260 260 260 260 261 261 262 262 263 263 264 266 267 269
258 257 257 257 256 256 256 256 255 254 254 253 253 253 253 253 252 252 253 252 252 252 253 253 253 253 253 252 252 252 252 253 254 255 255 256 256 257 257 257 257 256 257 258 259 259 259 258 258 258 258 258 258 258 258 257 257 258 258 258 258 259 259 260 260 260 260 260 260 260 260 260 260 260 260 260 260 261 261 262 263 263 263 263 264 266 268
256 256 255 255 254 253 253 253 254 253 252 252 252 252 251 251 251 251 251 251 253 253 253 252 252 252 251 251 252 253 253 254 255 255 256 256 257 257 256 255 255 255 256 257 259 259 258 258 258 258 258 258 257 257 257 257 258 258 258 259 259 260 260 260 261 261 261 261 260 260 260 260 260 260 260 260 260 260 261 261 261 262 262 263 264 265 267
255 254 254 254 253 253 251 251 251 251 251 251 250 251 251 251 251 251 251 251 251 252 252 251 251 251 251 252 253 253 254 255 256 256 256 257 257 256 255 254 254 255 256 256 257 257 257 258 258 258 257 257 257 257 257 258 258 258 259 259 259 260 260 260 260 261 261 262 261 261 260 260 260 260 260 260 260 260 260 261 261 262 263 263 264 265 266
254 253 251 251 251 250 250 250 250 249 249 248 249 250 250 250 250 250 250 251 251 251 252 252 251 251 252 253 254 254 255 256 256 256 256 256 256 254 254 254 255 256 256 255 256 257 257 257 258 257 257 256 256 256 257 258 258 258 259 259 259 259 260 260 260 261 261 261 261 261 260 260 260 260 260 260 260 260 261 261 262 263 263 264 265 266 268
252 252 252 251 250 249 250 250 250 249 249 249 249 249 250 251 251 251 250 251 251 252 251 251 252 252 253 253 254 255 255 255 256 255 255 255 255 254 253 254 255 255 256 257 256 257 257 257 257 256 256 256 256 256 257 258 258 258 258 259 259 259 259 260 260 260 261 261 261 261 261 261 260 260 261 261 261 262 263 263 263 264 265 266 267 268 270
251 251 250 250 249 249 249 249 250 249 249 249 249 249 250 250 250 250 250 250 251 252 252 252 252 253 253 253 254 254 255 255 255 255 255 254 254 253 254 255 255 256 256 257 256 257 257 257 256 256 256 256 256 257 257 257 258 257 258 258 258 259 259 259 259 259 260 260 261 261 261 261 261 261 262 262 262 263 263 264 265 266 267 268 268 267 266
249 250 250 249 249 250 249 249 249 250 250 250 249 250 251 250 250 250 250 250 251 252 252 252 253 253 254 254 254 254 255 255 255 255 254 254 253 254 254 254 257 256 256 256 256 256 256 256 256 255 256 256 256 257 256 257 257 256 257 257 257 258 258 258 258 259 259 259 259 260 260 261 262 262 263 263 263 264 265 265 266 265 265 265 265 264 264
249 249 249 248 248 248 249 249 250 249 249 249 250 250 250 251 250 250 250 250 251 251 252 253 255 255 255 255 255 255 255 255 255 254 254 253 253 253 253 255 257 256 256 256 256 256 256 255 255 256 255 256 256 256 257 256 256 256 256 256 257 257 257 257 258 258 259 259 259 259 260 260 260 261 262 262 262 262 262 262 263 262 262 262 262 262 262
248 247 248 248 248 249 249 249 249 249 249 249 249 249 249 249 249 249 249 250 251 252 253 255 255 255 255 255 254 254 254 255 254 254 254 254 254 254 254 255 255 255 256 256 256 255 255 255 255 255 256 256 256 256 256 255 255 255 255 255 256 256 256 257 257 257 257 257 258 258 258 259 259 259 260 260 260 261 261 261 261 261 261 261 261 261 261
248 248 248 248 248 248 248 248 248 248 248 249 250 249 249 249 249 250 250 251 253 254 254 254 255 255 255 255 254 254 254 254 254 254 253 253 255 254 253 255 255 255 256 255 255 255 255 255 255 255 255 256 256 255 255 254 254 254 254 254 255 255 255 256 256 256 256 257 257 257 257 258 258 258 258 259 259 259 260 260 260 260 260 260 260 260 260
248 248 248 247 247 247 248 248 248 248 249 249 249 249 249 249 250 251 252 254 254 255 255 255 255 255 255 255 255 254 254 254 254 254 252 253 253 254 255 255 255 255 255 255 255 255 254 254 255 255 255 255 255 255 254 254 254 254 254 254 254 254 255 255 255 255 256 256 256 257 257 257 257 257 258 258 258 258 258 258 258 259 259 259 259 259 258
248 248 247 248 247 247 248 248 249 249 248 248 248 249 251 251 252 254 255 255 255 255 255 255 255 255 255 255 255 255 254 254 254 254 254 254 253 253 255 255 255 255 255 255 255 254 254 254 254 254 254 254 254 254 253 254 254 254 253 253 253 254 254 254 254 255 255 255 255 256 256 256 256 257 257 257 257 258 258 258 258 258 258 258 258 258 258
247 246 246 245 246 246 247 247 247 248 247 247 249 251 253 253 254 255 255 256 255 255 255 256 255 256 256 255 254 253 253 253 254 255 254 254 254 254 254 254 254 254 254 254 254 254 254 253 253 254 254 254 254 253 253 253 253 253 253 253 253 253 253 253 254 254 254 255 255 255 255 256 256 256 256 256 256 257 257 257 257 257 257 258 258 258 257
244 245 246 245 245 246 246 245 245 246 247 250 250 253 254 254 255 255 255 255 255 255 255 256 256 256 256 255 255 255 254 253 251 253 254 254 254 254 254 253 254 254 254 254 253 253 253 253 253 253 253 253 253 253 253 253 253 253 253 253 253 253 253 253 253 253 253 254 254 254 254 254 254 255 255 255 255 256 256 256 257 257 257 257 257 257 257
243 244 245 245 245 245 245 248 249 251 252 252 252 253 254 254 254 255 255 255 255 255 255 255 255 255 256 255 255 255 255 254 253 252 254 254 253 253 253 254 253 253 253 253 252 252 252 252 252 252 252 252 252 252 252 252 252 252 252 252 252 253 253 253 253 253 253 253 253 253 254 253 254 254 254 254 254 255 255 255 256 257 257 257 257 257 257
244 243 245 247 248 248 248 250 251 252 253 254 254 254 255 254 254 254 255 255 254 255 255 255 255 256 255 255 255 254 254 253 254 254 254 254 253 253 253 253 253 252 252 252 251 252 252 251 252 252 251 252 251 252 252 252 252 252 252 252 252 252 253 253 253 253 253 253 253 253 253 253 253 254 254 254 254 255 255 255 255 256 256 256 256 256 255
246 248 248 249 249 250 248 249 251 253 253 254 254 255 255 254 254 254 254 254 254 254 254 254 255 255 255 254 254 254 253 253 253 253 253 253 253 253 253 252 252 252 252 251 251 251 251 251 251 251 251 251 251 251 251 251 251 251 251 251 251 252 252 252 252 252 252 253 253 253 253 253 253 253 253 254 254 254 254 254 254 255 255 255 255 254 254
245 245 247 248 248 249 250 250 252 254 254 255 255 254 254 254 254 254 254 254 254 253 253 252 253 255 255 254 253 253 253 253 253 253 253 253 253 253 252 252 251 251 251 251 251 250 251 251 251 251 251 251 251 251 251 251 251 251 251 251 251 251 251 251 251 252 252 252 252 252 253 253 253 253 253 253 253 253 253 253 254 254 254 254 254 254 254
Wind_Speed
11 13 12 7 4 6 8 13 15 18 16 12 13 13 14 13 13 17 14 18 19 16 18 14 4 4 3 2 3 1 3 3 4 4 4 4 5 5 5 5 4 4 4 4 4 5 6 7 9 9 9 8 8 7 7 7 7 7 8 8 8 9 9 9 9 9 9 8 8 10 10 10 10 11 11 9 9 9 9 9 8 9 9 9 10 10 8
7 9 11 9 9 10 11 13 15 16 19 21 18 18 17 17 18 18 18 21 24 21 12 5 4 4 3 3 4 3 4 4 4 5 6 6 6 6 6 6 5 5 6 6 7 7 7 7 8 9 9 9 9 10 10 9 9 8 8 8 8 8 8 8 7 8 8 8 9 9 10 10 11 11 11 10 9 9 9 8 9 8 9 9 9 10 10
7 10 12 12 10 12 13 14 15 18 20 20 18 19 17 18 19 21 21 22 22 4 5 3 3 2 2 4 5 5 5 5 5 6 7 8 7 7 7 6 6 6 6 7 7 7 7 7 8 8 8 8 9 10 10 10 11 10 10 10 9 8 9 8 8 9 8 8 8 10 10 10 10 11 11 11 11 10 10 9 9 8 8 8 8 8 10
8 8 9 9 10 11 11 14 18 21 20 17 16 15 13 14 15 17 16 13 11 3 3 3 1 1 4 6 7 7 5 5 5 6 8 9 8 8 8 8 7 7 8 8 8 8 8 8 7 7 7 8 8 9 10 11 11 11 11 11 11 12 11 10 10 9 9 10 10 11 10 10 9 8 9 9 9 9 9 9 9 8 8 8 8 8 8
8 12 3 3 4 8 11 17 20 17 18 20 18 16 16 18 15 11 12 9 2 4 3 1 3 1 5 7 8 7 8 7 5 6 8 9 9 9 9 9 9 8 8 8 9 9 8 7 7 7 7 7 8 8 9 10 10 10 11 11 12 12 12 12 12 11 10 10 10 9 9 10 10 9 8 9 9 8 9 9 9 8 9 9 8 8 8
8 11 3 1 2 10 14 2 4 4 9 7 10 12 13 10 7 4 2 2 3 2 3 1 3 2 3 6 8 6 7 9 9 10 10 10 10 10 10 9 9 9 8 8 8 8 9 8 8 8 7 7 8 7 8 9 9 10 10 11 10 11 11 12 12 12 11 10 9 10 9 9 10 10 10 10 10 9 8 8 8 9 8 8 8 8 8
8 3 2 6 12 15 3 3 2 3 3 5 10 11 11 1 2 2 3 5 4 5 3 4 4 6 7 8 9 10 9 9 9 11 12 12 12 11 10 10 9 8 9 9 9 9 8 7 7 7 8 8 8 8 8 9 9 10 9 10 11 11 11 11 11 10 11 9 10 10 10 10 10 9 10 11 10 10 9 9 9 8 9 9 8 7 8
2 2 7 6 6 2 5 7 4 1 3 9 9 11 8 5 7 8 7 8 6 3 3 5 6 8 8 6 7 9 10 10 9 11 12 13 11 12 10 11 11 11 11 11 10 10 7 6 7 7 8 8 8 10 10 10 10 9 9 9 11 10 11 11 11 12 10 10 10 10 10 11 10 10 10 10 11 10 10 10 9 9 8 7 8 9 7
6 6 9 15 9 14 13 12 3 5 4 3 3 4 2 7 6 6 5 3 2 3 7 8 9 3 2 6 7 10 10 10 10 12 14 14 14 13 12 10 11 11 10 11 11 9 9 8 8 8 8 8 8 10 11 11 11 12 10 10 11 11 11 11 11 11 12 10 10 10 11 11 11 11 11 11 11 9 10 10 10 10 10 9 7 8 9
6 7 8 7 6 7 2 2 0 0 2 2 3 3 6 4 5 2 1 1 1 5 8 8 9 4 6 9 10 7 7 7 8 9 11 12 13 13 12 11 10 9 8 8 9 9 11 11 11 9 8 8 9 10 11 11 12 12 11 12 12 12 12 10 12 12 10 10 10 11 11 12 13 12 11 11 11 10 10 10 11 10 10 10 9 8 8
3 4 8 7 7 5 5 3 2 1 1 1 1 2 9 1 8 3 2 3 4 4 6 9 8 4 8 10 11 9 8 8 5 8 11 12 11 11 11 9 10 11 10 9 9 10 11 13 13 12 11 10 10 10 11 12 12 12 14 14 13 14 13 13 12 11 10 9 9 11 13 13 12 13 13 12 12 11 10 11 11 10 9 10 10 9 9
10 9 9 10 4 5 1 4 3 1 3 3 2 11 7 3 6 5 3 5 8 8 8 8 6 6 10 11 11 11 11 11 8 8 11 12 13 11 8 9 8 9 9 10 11 12 13 14 13 13 11 11 12 13 13 13 12 13 14 14 15 14 14 13 11 10 9 11 12 12 13 14 12 12 12 13 12 12 11 11 11 11 11 10 10 10 10
10 13 10 8 8 5 7 7 10 5 1 1 5 13 1 5 5 5 7 9 9 10 10 7 5 8 10 13 15 12 10 12 13 11 9 9 8 9 9 8 6 8 9 9 11 13 13 13 12 12 10 10 12 12 13 12 15 15 15 15 15 15 14 13 12 12 11 10 13 13 12 12 12 13 12 13 13 12 12 12 12 12 13 12 11 11 11
10 10 11 11 9 6 7 10 2 6 2 5 10 1 5 3 5 7 9 10 10 10 10 8 8 10 12 12 9 9 11 13 12 11 9 9 9 8 7 7 7 8 10 11 13 14 13 13 12 10 9 11 13 14 13 15 15 15 15 16 15 14 14 15 15 14 14 14 13 13 13 12 12 13 13 13 13 13 12 13 15 16 15 12 12 12 12
3 4 7 6 8 1 5 5 5 6 4 6 1 3 5 2 5 7 8 9 10 9 8 8 10 11 11 9 10 11 11 11 10 8 8 9 10 11 12 12 10 9 11 13 14 15 13 12 10 10 11 14 14 14 15 17 16 16 15 16 15 15 16 16 16 16 16 17 16 13 14 14 15 15 15 14 14 13 14 15 16 17 17 14 12 12 12
4 6 7 6 3 3 3 5 5 5 11 3 3 5 8 8 8 7 6 6 6 6 7 9 10 9 9 10 10 9 9 8 8 8 8 9 9 10 10 10 10 9 12 12 13 15 14 12 11 10 10 13 14 16 18 17 15 15 15 15 15 16 17 17 18 17 17 17 17 15 15 15 14 15 15 14 13 13 14 14 14 15 14 14 13 13 13
5 6 6 2 2 2 4 6 7 6 8 8 8 5 8 9 9 4 5 8 7 4 5 7 8 8 8 8 6 7 9 9 9 9 10 10 11 11 11 12 9 8 10 13 15 16 16 14 12 12 11 12 15 17 16 14 15 16 16 17 17 17 19 19 18 17 17 17 17 16 16 15 16 15 16 15 14 13 13 13 14 15 16 15 14 13 13
6 7 10 3 3 7 8 9 8 9 11 11 8 8 9 8 7 3 6 6 5 2 2 5 6 6 6 6 8 8 9 10 10 9 10 11 10 10 9 9 9 10 12 13 14 16 18 16 13 12 11 11 15 16 17 14 15 15 17 19 18 19 19 18 18 20 20 20 19 19 19 16 16 16 16 15 15 15 13 14 15 15 16 15 15 14 13
2 6 10 10 11 13 13 13 10 9 9 9 9 9 8 7 1 1 1 2 2 1 1 4 6 7 5 7 8 9 9 9 9 10 11 11 11 10 11 11 11 12 12 13 15 16 19 17 14 12 13 12 13 14 15 15 15 16 17 17 19 19 19 17 17 18 19 17 17 17 16 16 16 16 16 16 16 17 16 16 15 16 16 16 15 15 14
10 12 16 11 12 12 11 10 11 13 13 13 9 2 1 1 3 2 2 2 2 2 2 3 5 7 5 6 8 9 9 8 9 9 10 11 12 12 10 12 10 11 11 13 15 17 17 17 15 15 14 14 13 14 14 14 15 16 17 18 18 19 19 17 17 16 17 21 22 17 17 15 16 16 16 15 16 17 16 15 14 15 15 16 16 15 14
9 12 15 17 16 14 16 15 13 12 13 11 3 2 2 2 3 3 2 1 1 2 4 3 4 5 6 6 8 10 10 9 9 9 11 12 12 13 13 12 9 10 13 15 16 16 17 15 15 15 15 15 15 15 15 15 14 18 19 20 19 19 18 17 17 15 15 16 15 16 16 16 16 16 16 16 17 18 18 15 16 16 15 17 17 16 14
9 10 14 10 5 9 11 10 7 8 2 1 2 4 3 3 2 2 2 2 2 2 2 3 3 5 7 6 7 10 9 10 11 12 12 12 13 12 12 10 12 13 13 12 15 18 17 15 15 16 19 15 15 16 14 15 17 17 18 19 19 19 16 16 17 15 15 15 15 16 16 17 17 18 22 27 23 19 18 23 30 32 28 21 19 17 17
12 15 16 10 10 13 14 12 2 3 2 3 4 4 4 3 2 0 1 3 2 3 3 2 4 6 7 8 8 10 10 9 9 10 12 12 13 13 12 13 14 13 14 15 16 18 16 15 17 18 17 19 20 19 16 16 16 17 17 18 17 17 17 16 16 18 17 16 16 15 16 16 16 18 17 17 25 32 33 32 32 34 35 37 38 36 26
17 17 14 8 5 10 14 8 3 3 2 3 3 2 2 3 1 1 1 2 4 5 4 4 4 5 7 8 8 11 11 10 10 12 10 11 12 13 12 11 13 17 17 16 15 17 16 16 17 18 21 18 15 15 13 12 13 15 17 16 18 18 16 17 18 18 16 18 17 16 16 16 16 17 17 18 18 21 27 29 30 32 33 35 37 37 38
17 16 12 6 6 8 1 4 2 3 3 1 2 2 2 1 1 1 1 3 3 5 6 6 5 4 6 7 7 10 11 11 10 12 13 12 11 11 12 13 14 14 15 15 15 17 20 19 18 19 16 17 16 15 15 15 14 14 16 17 19 19 18 18 18 18 18 17 17 16 17 17 16 16 16 17 18 17 15 22 27 28 29 32 33 34 35
16 17 9 4 0 2 2 2 3 4 3 3 2 2 2 2 1 1 3 4 5 5 5 6 6 5 5 6 8 10 12 12 11 12 12 11 11 12 13 13 13 12 14 15 17 18 17 17 16 18 16 17 16 16 16 15 15 16 17 17 18 17 16 17 18 18 16 16 16 17 16 16 16 16 16 17 17 18 17 15 15 19 24 29 31 32 33
11 2 1 6 8 7 8 9 4 6 4 3 2 2 2 1 1 2 3 4 5 6 5 5 6 6 5 6 8 9 10 14 12 10 10 12 13 12 11 11 14 16 17 18 17 16 17 17 16 14 16 17 15 15 14 14 14 16 17 17 16 19 27 23 16 16 16 16 16 16 16 16 16 16 16 17 17 17 17 17 17 17 14 13 17 22 20
2 2 5 9 12 6 4 3 5 5 4 3 3 2 1 1 2 2 3 4 3 3 3 4 4 5 7 7 7 9 9 11 12 12 13 14 12 12 12 14 15 16 15 14 14 14 15 16 17 17 18 16 14 14 14 15 16 16 16 17 17 16 15 17 16 15 15 16 16 16 16 16 16 16 16 16 17 16 16 17 17 17 16 15 14 19 32
3 3 1 2 3 4 5 4 3 4 3 3 3 2 1 3 3 3 3 2 3 3 4 4 3 4 7 8 8 10 11 13 14 15 14 14 13 12 12 12 13 13 14 15 15 15 15 16 17 17 18 17 16 15 14 15 14 15 16 16 16 15 15 15 15 15 16 16 16 17 17 18 17 16 16 16 16 16 16 15 16 15 15 15 14 15 17
4 3 3 2 4 4 5 4 5 4 3 3 2 0 1 2 4 3 3 3 3 4 4 4 6 6 7 9 9 9 11 12 13 13 13 14 14 13 12 11 11 12 12 13 13 15 16 16 17 20 20 14 11 14 15 14 15 17 17 17 16 16 15 15 14 16 15 15 15 19 17 15 15 15 15 14 15 15 15 14 15 15 15 15 15 15 15
5 4 3 3 4 3 4 4 3 3 3 2 1 2 3 3 4 6 5 4 4 5 5 6 8 10 9 9 9 10 11 12 13 13 14 13 13 12 11 10 11 13 14 16 18 17 17 18 17 17 16 14 14 16 15 15 15 16 15 15 15 20 24 26 22 17 15 16 15 15 14 15 15 15 14 14 14 14 14 15 15 15 15 14 14 14 14
8 4 3 3 3 4 3 2 3 3 2 1 2 3 3 4 5 7 7 6 5 6 8 9 10 9 9 10 10 11 11 11 12 12 12 11 10 10 10 10 11 12 15 16 14 14 16 17 16 16 17 18 18 16 15 16 15 15 14 14 15 14 16 23 17 17 15 15 14 14 14 14 13 13 14 13 13 14 13 13 14 14 13 14 13 12 12
5 1 3 4 3 4 5 4 4 3 1 2 3 3 3 4 5 6 6 6 8 8 9 9 9 9 10 10 10 10 11 12 12 12 10 9 10 12 10 11 12 13 15 15 15 15 14 15 16 17 17 17 15 15 15 15 14 14 14 14 14 15 16 17 19 17 15 15 14 14 13 13 13 13 14 14 14 14 13 14 14 14 14 14 14 13 13
5 4 1 2 3 4 5 4 2 1 1 2 3 3 4 4 5 6 6 7 9 10 9 10 9 10 9 9 10 9 10 10 10 10 11 12 12 12 12 12 12 13 13 15 14 12 11 14 16 17 17 17 16 15 14 14 14 14 14 14 14 15 15 15 16 14 13 13 14 15 14 14 13 13 13 13 13 12 14 14 14 15 14 13 13 13 17
5 6 5 4 4 3 3 1 1 2 3 4 4 4 4 5 5 6 7 8 9 9 10 10 9 9 10 9 8 9 8 9 11 12 12 12 12 13 12 14 14 13 13 11 11 10 11 14 15 15 17 17 16 15 13 15 15 15 16 16 15 14 14 14 14 13 12 13 12 11 11 11 11 12 13 13 12 12 12 12 12 12 11 13 13 14 14
4 4 3 2 3 2 1 1 2 2 3 5 5 5 5 6 6 7 8 8 8 9 10 10 9 9 8 8 10 9 9 10 10 11 12 12 12 12 12 13 14 14 13 12 7 10 15 14 17 24 19 16 15 15 15 15 16 15 15 15 14 14 14 14 14 14 13 11 10 10 10 11 12 12 12 11 11 11 11 12 12 12 13 13 13 13 13
4 3 3 1 1 0 1 2 2 3 4 5 6 6 7 7 7 7 7 7 8 8 8 7 8 9 10 9 9 10 9 9 10 10 11 12 11 12 12 12 12 11 12 12 12 15 14 14 22 27 18 14 15 15 17 23 16 15 15 14 13 13 13 13 13 12 12 10 9 9 10 10 9 9 10 10 10 11 11 11 12 11 11 11 12 12 13
2 2 1 0 1 1 2 3 3 4 5 6 6 6 7 8 7 7 7 6 7 7 7 7 8 9 9 10 9 9 10 10 10 10 11 12 11 12 12 10 10 9 10 11 15 15 13 18 24 18 14 13 14 16 18 25 25 18 13 13 12 12 13 13 13 12 11 11 10 8 8 8 9 9 9 9 9 10 11 11 11 11 11 11 11 11 12
2 2 0 0 0 1 4 4 3 4 5 7 7 8 7 7 7 7 7 7 8 6 6 8 8 8 9 9 9 10 10 10 9 10 11 11 9 9 10 10 10 8 8 12 14 13 15 17 16 15 13 13 15 15 18 22 26 16 13 12 12 12 12 12 12 12 12 11 10 9 8 8 8 9 9 9 9 9 10 11 11 12 12 11 11 11 8
2 2 2 2 3 3 3 4 4 5 5 6 6 8 7 6 7 6 7 7 8 7 7 7 8 8 9 8 8 9 10 10 9 10 10 10 10 10 10 9 6 5 9 15 13 11 15 21 16 12 12 13 14 14 15 21 21 13 12 12 12 11 11 11 11 11 11 11 11 11 9 9 9 9 9 9 9 9 9 9 10 10 10 9 6 4 3
4 3 2 2 3 2 3 4 5 6 6 6 6 8 7 7 6 6 8 8 8 7 8 7 8 9 9 9 9 10 10 9 9 9 9 8 8 7 8 8 6 8 10 12 11 12 15 14 12 12 12 13 13 16 16 20 14 11 12 12 11 11 11 11 11 11 11 11 11 10 10 10 9 9 8 8 8 8 7 7 6 6 6 5 5 5 4
2 2 2 3 3 4 4 4 5 6 7 7 7 7 8 7 6 8 9 8 8 8 8 9 10 10 10 10 9 9 10 9 8 8 7 7 8 8 9 8 8 8 15 15 13 12 11 11 12 11 12 15 14 22 24 15 11 11 11 11 11 11 11 11 11 11 10 10 10 10 10 10 9 9 9 8 8 8 7 7 6 6 6 7 6 6 6
2 2 3 3 4 4 4 5 5 7 7 8 7 7 7 6 6 7 7 8 8 8 8 8 8 9 9 8 8 8 9 7 7 8 8 7 9 9 8 8 10 10 17 12 11 9 10 9 11 10 19 19 16 24 21 12 11 11 11 11 11 11 11 10 10 10 10 10 10 10 10 10 10 9 9 9 8 8 8 8 7 7 7 7 7 7 7
1 2 2 3 5 5 4 5 6 6 6 8 6 5 6 7 7 7 8 7 7 7 7 8 8 7 7 7 7 7 7 7 7 6 7 8 5 2 1 5 8 12 15 12 11 10 9 10 10 17 23 24 25 23 13 10 10 10 10 11 10 11 10 11 10 10 10 10 10 10 10 10 9 9 9 9 9 9 8 8 7 7 7 7 7 7 7
3 3 4 5 5 4 4 4 6 7 7 5 7 7 8 7 8 7 7 7 7 7 7 7 6 6 6 6 6 6 7 7 7 7 6 7 8 5 5 10 10 9 11 15 10 8 7 9 15 23 21 24 23 21 11 11 10 10 11 10 10 10 10 10 10 10 10 10 10 10 10 9 9 9 9 9 9 8 8 8 8 8 8 8 7 7 8
4 4 3 4 4 5 6 5 7 5 6 6 7 7 7 6 5 5 6 7 7 6 5 6 6 6 5 5 6 6 6 7 6 5 4 3 4 7 10 11 9 8 14 14 7 8 8 17 20 21 22 21 21 12 9 10 10 10 11 10 10 10 10 10 10 10 10 10 10 10 10 9 9 8 9 8 8 8 8 9 8 8 8 8 8 8 7
3 3 4 4 5 6 6 5 4 4 5 4 5 4 3 3 4 5 5 6 7 6 6 5 5 5 5 4 4 5 5 6 6 3 2 1 5 8 9 11 10 12 11 8 8 7 8 12 15 20 21 20 17 9 8 9 10 10 10 10 10 10 10 10 10 10 10 10 11 10 10 10 9 9 9 9 9 9 8 9 8 8 8 8 8 8 9
3 4 6 6 7 8 5 5 2 3 3 5 4 4 4 4 6 6 5 4 4 5 5 4 4 4 3 2 3 3 4 4 5 3 2 3 6 6 6 5 8 13 13 9 10 9 15 18 19 19 19 17 10 8 9 9 9 10 9 9 10 10 10 10 10 10 10 10 10 10 10 10 10 9 9 9 9 9 8 8 8 8 8 8 8 8 9
5 7 7 6 5 6 4 3 3 3 2 3 4 4 4 5 6 5 4 4 5 4 4 4 4 3 3 3 4 3 3 3 3 5 5 6 6 6 6 7 10 11 9 7 8 7 12 18 17 17 17 13 8 8 8 8 9 9 9 9 9 9 9 9 10 9 9 10 10 10 10 10 10 10 10 9 9 9 9 9 9 9 8 8 8 9 9
4 2 3 2 2 2 2 1 2 2 2 3 3 3 4 4 4 3 3 3 4 4 4 3 3 2 2 3 2 3 3 4 5 6 6 6 6 6 6 7 7 10 9 7 7 7 9 15 13 13 11 8 8 8 8 8 8 8 8 9 9 8 9 10 10 12 11 10 10 10 10 9 10 10 10 9 9 9 9 9 8 9 13 10 9 8 8
1 1 2 3 2 3 5 4 2 2 2 2 3 3 3 3 3 4 3 4 4 4 3 4 3 2 2 3 3 3 4 4 4 5 4 5 5 6 7 6 7 6 7 7 6 7 8 7 7 9 9 8 7 7 7 8 8 8 8 7 8 9 9 10 10 9 10 10 9 9 10 10 10 10 9 9 10 10 9 9 9 8 8 8 8 7 7
4 3 3 3 3 4 3 2 1 1 1 2 2 2 3 3 3 3 3 4 3 3 4 4 4 2 2 4 4 4 4 4 4 4 5 5 5 5 6 7 6 6 6 6 6 6 6 7 7 8 8 7 7 7 8 10 8 7 7 8 7 7 8 8 8 8 9 9 8 8 8 8 8 8 9 8 8 8 8 8 8 8 8 8 7 7 7
Wind_Direction
266 274 282 294 292 273 270 271 274 276 277 268 255 254 257 260 257 273 286 283 277 276 276 285 356 56 48 6 11 358 304 247 236 258 278 291 308 314 314 324 321 317 317 315 310 310 314 320 329 330 333 335 334 330 322 320 325 326 326 324 325 330 332 336 337 338 333 332 326 328 328 332 335 336 334 332 330 329 329 324 316 306 290 278 275 264 250
286 285 283 284 286 283 274 264 266 270 272 271 270 269 264 260 262 262 265 268 271 277 295 67 69 35 18 348 330 308 310 305 277 269 271 272 276 282 287 294 310 315 314 312 313 316 315 319 320 324 326 329 331 329 327 328 328 328 329 319 314 314 316 316 317 321 326 326 329 328 329 330 331 331 331 329 324 325 325 326 322 314 311 298 283 275 268
279 281 282 282 285 284 277 278 273 266 263 267 270 268 268 268 263 260 260 262 266 281 90 94 81 345 316 321 318 317 308 293 284 277 278 278 276 279 285 288 294 293 288 288 289 290 296 305 310 313 315 318 323 321 321 323 325 327 328 321 319 315 314 313 314 317 321 322 323 325 325 326 326 327 328 328 326 322 325 325 322 319 310 302 287 277 273
280 277 280 293 293 287 282 277 266 259 260 263 254 255 252 256 262 264 268 260 261 108 119 89 272 307 325 318 316 309 305 297 276 279 282 283 283 292 302 300 288 285 283 284 284 285 286 288 293 298 303 308 308 310 313 317 319 321 322 321 320 320 319 321 318 317 319 322 322 320 322 321 321 319 318 319 320 321 322 324 322 319 310 301 296 285 275
257 278 2 331 325 303 281 252 248 251 250 245 253 255 263 260 269 272 260 277 37 126 132 57 357 289 321 310 316 320 310 303 274 278 280 280 286 291 296 297 292 287 285 280 279 280 280 278 284 287 290 289 291 295 300 301 307 309 312 315 316 317 319 320 321 317 316 317 316 316 318 320 318 314 314 314 314 319 319 318 317 313 311 308 300 292 284
277 286 75 255 310 266 249 9 55 263 264 280 261 256 254 265 241 277 349 118 160 151 166 246 322 315 261 290 291 293 295 299 301 292 288 283 281 284 283 282 280 275 274 269 264 262 266 272 277 287 285 282 281 282 283 287 292 296 302 305 307 308 309 311 312 313 311 314 313 313 312 309 312 313 315 312 311 311 308 307 308 307 305 298 294 292 286
267 69 43 271 244 243 345 57 32 80 348 291 269 269 267 251 114 147 177 156 170 196 186 239 281 283 273 259 267 279 280 280 279 284 284 283 279 275 279 283 286 283 276 272 265 258 256 262 279 286 289 290 295 294 291 287 285 289 290 294 299 301 303 305 307 307 307 307 308 309 310 307 304 302 303 304 306 307 310 309 305 302 305 304 296 288 284
3 231 226 239 239 53 306 282 232 128 228 257 263 270 232 175 197 194 193 192 179 192 238 271 266 274 275 272 267 267 272 273 273 279 279 277 272 271 276 288 288 290 291 291 292 287 278 269 269 276 287 297 300 299 301 296 291 284 279 279 284 289 290 293 297 301 302 302 302 307 307 305 300 298 296 296 298 302 303 303 299 299 291 281 282 287 280
221 232 215 235 325 322 295 287 225 170 243 215 223 276 307 174 209 188 190 206 201 261 309 317 316 290 242 263 256 235 243 257 259 264 272 272 268 266 264 265 272 278 282 285 291 301 301 294 294 296 303 302 298 298 299 298 298 294 290 283 282 282 280 283 286 288 290 292 295 298 300 299 296 294 296 294 293 291 289 289 294 296 296 292 286 285 279
197 231 263 269 257 252 306 53 353 317 295 19 322 74 283 158 198 185 155 183 278 303 299 301 306 304 289 286 289 285 262 246 262 273 274 274 272 267 267 266 270 284 300 315 318 313 309 307 308 311 311 307 301 294 290 292 292 289 289 287 289 284 279 281 279 279 281 285 287 290 293 293 294 295 295 293 290 288 282 284 284 280 283 287 283 279 270
233 201 226 241 246 252 96 251 147 338 112 61 334 278 280 158 155 208 168 277 279 252 276 283 286 276 281 284 292 297 303 307 302 295 293 288 277 275 284 308 322 323 322 324 315 310 307 307 312 318 317 310 301 294 293 293 290 286 283 286 285 283 285 284 281 277 276 278 281 287 289 290 291 292 292 291 289 286 282 281 277 277 276 279 279 277 271
232 247 252 251 254 256 251 208 288 152 121 135 289 296 299 67 222 187 185 229 262 273 266 269 270 271 287 289 296 308 307 317 313 296 295 295 295 297 316 319 326 326 321 320 318 315 311 308 314 314 314 309 302 297 294 295 291 286 286 286 283 286 288 287 283 280 275 279 279 282 284 287 289 288 288 288 285 284 283 283 284 283 279 276 274 276 274
236 240 250 263 263 256 255 259 271 119 181 92 259 249 290 177 215 207 203 231 249 258 263 256 258 247 265 281 289 299 311 309 303 300 299 300 303 302 307 313 332 318 316 312 306 305 301 302 306 308 309 306 299 298 297 295 288 293 297 296 298 296 292 290 286 283 283 278 280 279 279 281 283 284 284 285 286 285 287 287 284 282 282 279 272 268 267
235 236 250 251 272 279 277 269 295 131 179 240 244 261 119 194 223 230 218 241 248 250 248 255 263 280 282 285 289 294 296 295 297 302 312 319 315 314 312 306 313 320 314 307 303 300 299 303 307 309 312 308 303 303 302 294 298 307 304 305 303 299 295 291 289 288 286 285 281 280 279 279 280 279 278 279 282 284 286 287 288 285 279 272 269 267 269
230 231 251 265 267 250 185 176 80 211 193 261 302 304 286 185 237 255 241 228 241 235 261 264 276 280 277 273 277 284 290 293 297 311 321 317 313 312 316 317 322 328 314 309 306 303 307 312 317 320 324 312 305 304 298 300 309 307 306 306 303 300 296 294 291 288 287 285 284 282 279 278 278 277 279 280 280 282 281 280 279 280 276 270 262 262 262
222 219 211 218 231 235 183 175 240 203 214 268 308 323 305 300 298 288 297 271 263 267 271 281 280 270 272 277 280 288 291 296 304 309 310 307 304 304 305 308 316 328 313 309 309 309 310 312 315 317 317 308 305 304 302 312 312 310 310 310 310 304 299 295 294 291 289 288 284 282 280 280 278 275 274 278 280 277 279 279 279 277 275 273 267 263 261
178 230 252 209 163 234 180 204 239 263 275 283 285 283 280 289 285 275 271 280 286 274 268 266 266 273 271 280 299 299 295 301 304 309 308 307 304 304 307 314 324 328 322 317 312 307 306 310 316 317 316 311 306 305 311 320 320 321 320 318 311 304 301 299 297 296 294 291 289 287 286 284 281 277 276 274 274 271 272 273 271 271 272 272 266 263 264
245 275 268 276 231 249 253 223 222 253 269 270 270 267 277 260 269 272 273 283 287 271 234 258 265 262 284 300 295 292 291 295 300 304 302 302 304 306 312 318 332 331 321 312 307 304 305 311 320 318 322 327 320 312 315 317 317 317 313 309 305 302 299 295 294 295 293 290 287 284 283 281 278 275 275 274 272 271 268 267 267 267 269 268 266 260 259
276 261 248 225 245 249 249 261 263 255 251 261 269 273 266 272 266 190 184 252 242 161 163 246 270 279 284 283 286 288 288 290 296 300 300 301 307 316 318 322 334 323 324 315 312 313 308 312 321 320 320 312 305 307 309 312 312 308 305 301 297 294 292 294 295 292 290 288 288 286 282 279 274 271 269 267 266 266 262 260 260 262 263 264 264 261 258
234 250 261 260 249 249 258 263 272 272 271 268 268 258 307 347 80 102 127 133 162 161 237 251 271 279 285 283 286 290 290 294 299 299 300 307 311 312 316 315 324 322 320 316 310 310 305 310 315 310 309 307 305 305 300 299 299 299 295 295 293 292 292 294 292 291 289 285 285 283 281 277 274 271 267 265 264 261 260 259 261 262 262 262 262 262 262
238 257 264 264 269 273 267 255 246 250 262 272 246 141 173 137 142 137 136 167 222 242 266 278 275 283 281 281 288 291 297 300 301 303 307 309 308 312 318 320 334 326 315 310 307 305 301 305 304 302 300 300 300 297 296 295 294 297 295 294 292 291 292 292 289 290 288 286 285 285 284 282 275 272 271 270 268 268 262 259 260 265 267 266 265 267 268
244 238 249 239 246 271 270 252 218 233 241 268 198 137 155 172 180 183 208 206 219 232 271 285 286 281 289 292 295 292 294 298 301 304 307 308 310 311 316 318 315 311 307 307 304 302 299 301 299 300 302 295 293 291 293 296 297 292 294 294 293 292 292 290 290 289 288 287 287 286 284 283 282 278 272 270 271 270 273 268 265 263 262 263 264 267 269
250 245 243 233 242 264 264 281 100 128 147 187 193 208 183 173 164 153 283 291 267 246 251 289 295 287 292 300 304 294 291 295 300 301 307 310 311 311 315 312 308 312 310 309 303 298 297 299 302 301 296 298 299 297 296 295 294 289 288 292 291 291 291 288 288 289 288 286 284 283 281 280 279 279 280 271 264 265 266 269 269 268 267 266 266 266 266
252 259 265 250 214 255 275 293 109 144 139 190 194 152 146 139 155 124 263 277 289 295 294 278 281 296 300 302 302 293 295 299 306 305 306 306 303 303 304 305 308 310 307 306 302 298 298 297 295 296 296 291 287 289 291 288 286 285 285 287 290 290 289 289 289 286 285 284 283 281 280 278 277 279 279 282 279 266 266 267 266 266 265 264 263 262 262
248 252 258 274 264 269 8 55 83 114 109 122 192 165 142 155 108 10 303 291 288 291 292 291 295 299 298 300 303 300 300 304 306 307 309 303 297 299 301 302 302 299 298 297 295 297 299 296 294 293 290 290 291 290 291 291 287 284 285 285 286 287 288 287 285 285 284 283 282 280 281 280 279 277 277 279 280 286 274 268 269 267 266 266 267 266 264
243 256 272 77 320 227 121 66 223 178 138 128 133 140 119 101 70 355 295 295 291 291 288 289 295 305 316 312 309 307 303 299 310 312 305 305 307 307 305 300 297 291 292 294 295 292 286 281 283 290 287 290 294 294 293 292 289 287 286 284 283 285 286 284 285 284 281 280 280 279 278 277 277 278 276 276 278 280 285 285 277 270 267 266 266 264 265
235 264 112 282 257 228 170 216 244 121 143 119 148 135 112 97 31 291 297 288 282 282 282 297 307 313 323 312 300 297 300 306 309 300 298 301 299 296 294 292 294 295 295 294 289 284 284 288 289 288 288 291 292 292 290 288 286 286 285 284 283 282 281 281 280 280 280 278 278 277 276 276 276 276 276 277 278 278 277 279 280 282 281 277 276 281 280
120 150 176 219 251 272 144 103 103 137 135 153 144 146 116 357 299 281 272 260 241 254 294 298 305 336 321 319 319 309 307 303 301 303 303 297 296 296 291 290 295 294 289 282 279 286 291 291 292 294 293 294 293 292 291 290 288 288 286 285 285 283 283 282 280 278 278 278 276 276 276 276 275 274 275 276 276 276 277 276 276 277 277 276 275 272 273
165 136 114 30 38 89 105 117 126 148 152 128 118 104 18 313 283 272 265 262 289 303 294 302 338 331 315 311 314 305 305 303 302 301 300 298 295 291 290 291 290 288 287 285 287 292 295 297 298 295 291 293 295 293 291 292 288 285 287 288 285 283 282 281 279 278 278 276 275 274 274 274 271 272 274 274 272 272 272 274 275 276 277 280 281 280 277
136 126 110 130 117 130 147 184 185 176 164 167 129 240 335 316 300 292 303 300 319 309 311 335 325 312 311 301 300 294 292 293 296 297 296 297 294 292 287 289 289 285 285 287 296 303 303 301 301 299 300 297 293 299 297 291 290 286 279 277 277 277 276 276 277 279 277 276 276 276 276 277 276 273 269 266 268 269 270 269 274 278 281 280 278 282 285
113 94 121 140 149 159 189 194 160 178 171 139 52 323 304 310 295 298 303 315 313 311 327 323 310 304 299 292 291 292 292 293 292 291 289 286 285 283 287 298 308 311 307 303 304 303 300 298 296 294 296 298 298 301 300 295 294 291 289 287 285 281 281 281 281 283 282 281 279 277 276 276 275 275 276 280 279 279 277 277 278 274 272 273 277 282 283
106 96 109 168 179 195 203 193 183 181 157 83 332 301 318 325 310 306 307 306 313 324 316 307 298 295 296 298 295 293 292 289 285 281 276 273 274 286 295 299 292 291 293 295 293 292 297 298 294 300 310 313 310 305 303 305 305 303 300 298 295 294 289 288 287 284 283 279 278 276 275 274 274 273 272 272 273 273 271 271 272 275 276 274 272 270 268
117 110 258 211 217 241 237 208 182 188 135 277 280 287 298 286 281 283 289 304 311 307 297 289 290 293 296 297 297 295 291 288 279 271 268 277 295 302 298 302 303 299 294 293 288 287 287 297 305 309 307 310 311 311 311 309 309 306 304 300 298 293 290 288 283 282 279 278 275 272 272 270 270 274 274 270 270 271 271 270 271 275 277 278 278 274 269
195 211 99 108 160 206 206 168 114 212 278 265 273 280 278 280 285 292 296 300 294 291 288 293 296 298 296 298 295 291 291 292 298 304 306 303 303 303 305 306 302 296 286 283 284 291 308 314 312 313 315 315 314 314 313 312 311 308 302 300 295 292 290 289 286 281 275 273 272 271 268 268 269 270 273 278 280 279 282 285 288 288 286 282 277 280 284
90 87 95 87 71 76 72 117 210 247 266 269 259 250 268 276 286 287 289 292 287 289 295 297 296 296 296 291 287 279 278 281 290 297 300 305 307 308 311 308 304 297 286 273 279 305 319 311 308 317 323 319 315 313 313 311 309 305 301 297 293 288 288 287 288 281 276 272 271 270 268 267 265 269 271 274 278 282 281 278 278 280 286 289 293 296 292
98 109 107 110 111 94 125 218 258 278 277 282 287 292 287 281 275 279 278 274 283 290 292 291 292 292 286 281 283 287 289 291 291 293 297 301 307 309 311 309 308 302 299 296 306 328 322 318 321 326 326 320 320 317 314 315 313 311 307 308 304 306 303 302 300 294 282 274 274 271 269 269 271 274 276 278 278 277 277 278 278 278 278 279 283 285 288
110 130 135 133 125 96 6 289 259 265 264 259 269 270 273 272 269 268 269 274 277 274 277 283 286 282 279 278 280 280 277 284 296 299 299 304 310 312 311 305 299 295 311 321 329 334 326 324 328 330 328 321 322 320 320 320 320 319 314 312 311 308 307 307 307 306 303 293 282 278 278 278 278 277 276 277 276 277 277 277 279 278 276 274 275 275 278
118 116 139 140 220 227 257 250 252 240 258 269 261 255 258 268 268 269 270 271 273 270 274 274 272 273 276 278 276 278 288 293 292 296 303 306 312 311 310 308 307 315 327 328 324 324 323 326 330 331 326 325 321 321 320 323 326 323 315 315 311 311 311 314 316 316 316 314 303 289 283 281 278 278 276 274 271 273 272 273 274 273 274 271 271 270 272
145 94 123 218 113 239 269 269 243 240 235 256 271 274 268 266 269 273 269 270 270 268 268 269 272 273 273 279 291 297 296 296 300 303 305 306 308 308 300 297 287 291 307 316 318 318 323 327 329 325 324 320 320 319 324 327 328 323 318 314 316 316 319 321 323 323 325 320 312 304 295 289 281 280 277 275 272 272 272 271 271 272 274 273 276 285 297
178 199 223 212 240 241 244 263 268 265 261 250 257 269 270 276 274 273 275 274 273 272 271 272 278 281 285 286 291 294 298 302 302 305 304 305 306 301 295 280 273 308 320 319 321 319 321 325 326 323 325 327 328 329 330 330 329 326 323 323 323 324 325 326 327 330 332 336 332 323 312 301 294 290 285 285 282 281 281 280 279 281 283 289 305 336 357
200 200 212 198 239 236 241 251 270 267 265 267 261 263 266 265 270 273 271 271 274 271 273 271 275 277 282 286 285 289 294 297 299 299 300 302 300 304 305 296 326 336 326 327 324 323 325 328 331 331 333 333 331 335 334 332 332 330 330 329 330 330 331 332 334 334 336 336 339 341 342 339 326 314 311 305 304 306 308 312 321 339 348 349 348 357 18
214 194 217 224 238 248 258 263 267 279 276 270 266 267 267 262 257 259 267 271 275 274 270 265 266 278 288 290 292 294 291 293 294 297 297 290 295 302 301 294 330 323 325 325 327 327 331 331 335 336 337 335 333 336 338 334 332 334 334 335 335 335 335 335 337 337 337 338 341 341 344 345 346 347 348 351 351 351 345 348 350 354 359 3 3 8 14
180 195 227 240 262 259 257 261 266 268 277 279 274 270 271 272 265 265 262 262 262 264 267 273 282 285 286 288 291 290 290 294 295 295 290 276 260 255 259 296 317 320 326 330 329 326 332 331 338 338 338 339 337 337 338 339 335 337 337 337 336 338 339 340 339 338 342 344 346 349 349 350 353 353 351 353 354 352 354 357 360 1 2 6 10 8 14
218 245 252 247 254 258 256 262 267 271 276 279 279 276 275 270 263 256 261 262 265 270 280 283 284 283 288 290 287 296 303 315 311 312 305 303 276 227 208 312 324 321 329 336 331 333 332 335 339 338 337 341 342 342 342 338 338 341 340 338 338 340 341 343 345 345 347 346 348 348 349 350 354 355 357 356 353 355 357 0 5 5 7 11 19 21 20
223 228 231 235 247 259 260 253 259 265 270 280 290 289 278 268 266 256 250 259 272 282 283 284 282 286 292 293 294 299 303 303 299 305 307 316 324 318 359 341 328 327 330 331 328 330 327 339 337 338 340 343 343 345 349 346 342 343 343 343 343 343 344 345 348 348 348 349 349 348 350 352 352 353 355 354 355 358 359 360 4 8 10 16 16 26 27
254 248 243 260 261 256 251 257 267 280 283 285 285 280 268 259 256 270 278 278 280 279 281 278 280 276 281 285 296 299 294 296 295 274 254 272 304 307 319 317 317 315 324 327 329 334 335 337 338 340 342 345 345 347 342 343 349 353 352 347 349 350 348 347 348 348 350 351 352 351 352 350 352 353 353 355 357 359 3 6 9 15 19 21 23 26 33
252 276 256 241 261 265 273 276 282 272 269 276 277 289 293 285 293 297 290 289 287 287 285 281 280 281 286 290 312 312 314 312 299 264 230 276 300 296 298 305 309 319 331 331 335 335 337 337 337 340 345 345 345 341 339 345 352 349 350 352 356 356 351 352 352 351 351 351 350 351 352 355 355 352 351 355 360 3 3 11 18 16 19 24 32 32 37
247 262 273 261 267 279 295 295 292 284 280 269 276 291 300 305 305 301 297 297 307 305 294 290 291 289 285 287 301 296 296 302 307 300 178 301 311 310 315 322 328 334 332 331 337 333 339 341 341 341 344 344 346 343 349 357 356 353 349 347 351 353 354 353 356 356 353 352 354 358 1 0 358 356 358 2 4 4 4 10 18 22 25 28 31 34 40
231 243 263 271 276 281 287 280 285 276 279 289 298 308 313 309 308 303 301 315 318 313 298 294 291 289 298 310 307 299 296 285 261 275 305 312 309 316 313 325 333 340 341 337 333 328 338 340 338 340 341 342 346 345 346 349 348 349 351 351 351 352 353 356 357 354 353 356 358 0 2 1 1 4 2 5 9 9 8 13 21 29 32 37 40 43 47
265 247 257 256 257 267 262 274 271 273 296 312 314 321 321 322 313 318 328 325 315 312 304 301 300 291 296 312 306 299 288 288 277 278 282 293 308 312 328 335 336 335 336 332 328 329 335 335 335 341 343 340 341 343 348 347 348 351 351 347 351 354 353 351 357 3 8 9 8 8 1 360 0 1 5 7 5 11 15 17 20 26 28 37 43 44 46
253 249 246 253 251 249 242 235 240 285 305 313 319 320 323 318 307 314 320 315 309 311 307 311 295 285 305 323 316 303 302 301 302 311 313 323 325 330 337 336 331 327 332 330 331 333 332 335 335 337 338 336 337 339 347 346 345 344 348 349 348 353 355 356 359 359 6 6 4 12 14 15 11 12 15 14 14 18 20 27 22 18 24 30 35 38 39
255 252 264 267 241 251 253 262 276 309 318 320 330 326 318 308 308 308 305 316 317 307 308 310 308 300 334 328 316 315 322 326 329 329 332 329 332 326 328 331 331 330 339 336 330 326 330 329 328 331 337 338 338 335 335 341 347 345 345 348 350 351 353 354 355 352 356 1 359 1 2 3 0 12 14 14 13 13 15 17 20 20 17 23 26 28 35